Jackson, MI

12:40 PM EST on December 11, 2017 (GMT -0500)
Jackson County-Reynolds

Weather History for KJXN - November, 2011

Change the Weather History Date:

Monday, November 7, 2011

  Actual Average Record
Temperature  
Mean Temperature 57 °F 43 °F  
Max Temperature 61 °F 52 °F 66 °F (1975)
Min Temperature 52 °F 35 °F 15 °F (1991)
Degree Days  
Heating Degree Days 8 22  
Month to date heating degree days 145  
Since 1 July heating degree days 793  
Cooling Degree Days 0 0  
Month to date cooling degree days 0  
Year to date cooling degree days 592  
Growing Degree Days 6 (Base 50)    
Moisture  
Dew Point 48 °F    
Average Humidity 78    
Maximum Humidity 100    
Minimum Humidity 55    
Precipitation  
Precipitation 0.02 in 0.08 in 1.21 in (1996)
Month to date precipitation 0.02 0.61  
Year to date precipitation 27.64  
Sea Level Pressure  
Sea Level Pressure 30.21 in    
Wind  
Wind Speed 7 mph (SW)    
Max Wind Speed 15 mph    
Max Gust Speed 20 mph    
Visibility 7 miles    
Events Rain    
T = Trace of Precipitation, MM = Missing Value Source: NWS Daily Summary

Daily Weather History Graph

Daily Weather History Graph

Search for Another Location

Airport or City:

Trip Planner

Search our weather history database for the weather conditions in past years. The results will help you decide how hot, cold, wet, or windy it might be!

Date:

Astronomy

Nov. 07, 2011 Rise Set
Actual Time 7:18 AM EST 5:24 PM EST
Civil Twilight 6:48 AM EST 5:53 PM EST
Nautical Twilight 6:15 AM EST 6:27 PM EST
Astronomical Twilight 5:42 AM EST 7:00 PM EST
Moon 3:37 PM EST (11/7) 4:17 AM EST (11/7)
Length of Visible Light 11h 05m
Length of Day
10h 06m
Waxing Gibbous, 91% of the Moon is Illuminated
Nov 7
Waxing Gibbous
Nov 10
Full
Nov 18
Last Quarter
Nov 25
New
Dec 2
First Quarter

Hourly Weather History & Observations

Time (EST) Temp. Dew Point Humidity Pressure Visibility Wind Dir Wind Speed Gust Speed Precip Events Conditions
12:56 AM 55.9 °F 41.0 °F 57% 30.16 in 10.0 mi SSW 11.5 mph - N/A   Overcast
1:56 AM 55.9 °F 41.0 °F 57% 30.17 in 10.0 mi SSW 9.2 mph - N/A   Overcast
2:56 AM 55.0 °F 41.0 °F 59% 30.17 in 10.0 mi SSW 8.1 mph - N/A   Overcast
3:56 AM 55.9 °F 41.0 °F 57% 30.17 in 10.0 mi SW 9.2 mph - N/A   Overcast
4:56 AM 55.9 °F 41.0 °F 57% 30.18 in 10.0 mi SW 10.4 mph - N/A   Overcast
5:56 AM 55.9 °F 42.1 °F 60% 30.19 in 10.0 mi WSW 8.1 mph - N/A   Overcast
6:56 AM 55.4 °F 42.8 °F 63% 30.20 in 10.0 mi SW 6.9 mph - N/A   Overcast
7:40 AM 55.4 °F 42.8 °F 63% 30.21 in 10.0 mi WSW 8.1 mph - N/A   Overcast
7:56 AM 55.0 °F 42.1 °F 62% 30.22 in 10.0 mi SW 8.1 mph - N/A   Overcast
8:56 AM 55.9 °F 43.0 °F 62% 30.22 in 10.0 mi SW 6.9 mph - N/A   Overcast
9:30 AM 55.4 °F 44.6 °F 67% 30.23 in 10.0 mi SW 11.5 mph 16.1 mph N/A   Overcast
9:56 AM 55.4 °F 44.6 °F 67% 30.23 in 10.0 mi WSW 8.1 mph - N/A   Overcast
10:51 AM 59.0 °F 46.4 °F 63% 30.23 in 10.0 mi WSW 8.1 mph - N/A   Mostly Cloudy
10:56 AM 60.1 °F 46.9 °F 62% 30.23 in 10.0 mi WSW 12.7 mph 17.3 mph N/A   Mostly Cloudy
11:06 AM 57.2 °F 46.4 °F 67% 30.23 in 10.0 mi West 10.4 mph - N/A   Mostly Cloudy
11:56 AM 59.0 °F 46.4 °F 63% 30.22 in 10.0 mi WSW 9.2 mph - N/A   Overcast
12:56 PM 59.0 °F 48.0 °F 67% 30.21 in 10.0 mi SW 5.8 mph - N/A   Overcast
1:42 PM 57.2 °F 48.2 °F 72% 30.20 in 10.0 mi West 5.8 mph - N/A   Overcast
1:56 PM 57.9 °F 48.0 °F 70% 30.20 in 10.0 mi SSW 5.8 mph - N/A   Overcast
2:56 PM 57.0 °F 48.0 °F 72% 30.21 in 10.0 mi WSW 4.6 mph - N/A   Overcast
3:56 PM 57.0 °F 48.0 °F 72% 30.20 in 10.0 mi WSW 4.6 mph - N/A   Overcast
4:56 PM 55.9 °F 50.0 °F 80% 30.20 in 10.0 mi SW 4.6 mph - 0.00 in Rain Light Rain
5:56 PM 54.0 °F 51.1 °F 90% 30.20 in 9.0 mi Calm Calm - 0.01 in Rain Light Rain
6:47 PM 53.6 °F 51.8 °F 94% 30.21 in 6.0 mi Calm Calm - 0.00 in   Overcast
6:56 PM 53.1 °F 52.0 °F 96% 30.22 in 6.0 mi SSW 3.5 mph - 0.00 in   Overcast
7:37 PM 53.6 °F 51.8 °F 94% 30.22 in 6.0 mi SSW 4.6 mph - N/A   Overcast
7:56 PM 53.1 °F 51.1 °F 93% 30.23 in 5.0 mi SW 3.5 mph - N/A   Overcast
8:56 PM 53.1 °F 52.0 °F 96% 30.23 in 4.0 mi Calm Calm - N/A   Overcast
9:18 PM 53.6 °F 51.8 °F 94% 30.23 in 3.0 mi Calm Calm - N/A   Overcast
9:56 PM 53.6 °F 51.8 °F 94% 30.22 in 3.0 mi Calm Calm - N/A   Overcast
10:29 PM 51.8 °F 51.8 °F 100% 30.23 in 2.5 mi Calm Calm - N/A   Overcast
10:41 PM 51.8 °F 51.8 °F 100% 30.22 in 3.0 mi Calm Calm - N/A   Overcast
10:54 PM 51.8 °F 51.8 °F 100% 30.22 in 2.0 mi Calm Calm - N/A   Overcast
10:56 PM 52.0 °F 52.0 °F 100% 30.22 in 2.0 mi Calm Calm - N/A   Overcast
11:13 PM 51.8 °F 51.8 °F 100% 30.21 in 1.8 mi Calm Calm - N/A   Overcast
11:32 PM 51.8 °F 51.8 °F 100% 30.21 in 1.2 mi Calm Calm - N/A   Overcast
11:42 PM 51.8 °F 51.8 °F 100% 30.21 in 1.2 mi Calm Calm - N/A   Overcast
11:56 PM 52.0 °F 52.0 °F 100% 30.21 in 1.0 mi Calm Calm - 0.01 in Rain Light Rain